Regional Weather Roundup
Issued by NWS

Home | Current Version | Previous Version | Text Only | Print | Product List | Glossary Off
Versions: 1 2 3 4 5 6 7 8 9 10 11 12 13 14 15 16 17 18 19 20 21 22 23 24 25 26 27 28 29 30 31 32 33 34 35 36 37 38 39 40 41 42 43 44 45 46 47 48 49 50

000
ASUS43 KLMK 210502
RWRKY
KENTUCKY REGIONAL WEATHER ROUNDUP
NATIONAL WEATHER SERVICE LOUISVILLE KY
100 AM EDT TUE OCT 21 2014

NOTE "FAIR" INDICATES FEW OR NO CLOUDS BELOW 12,000 FEET
WITH NO SIGNIFICANT WEATHER AND/OR OBSTRUCTIONS TO VISIBILITY.

KYZ001>023-026-027-061>063-070>075-210600-
WESTERN AND SOUTH CENTRAL KENTUCKY

CITY           SKY/WX    TMP DP  RH WIND       PRES   REMARKS
PADUCAH        CLEAR     49  48  97 CALM      30.01S
HENDERSON      CLEAR     55  43  62 NW5       30.00S
OWENSBORO      CLEAR     54  46  74 CALM      29.99S
HOPKINSVILLE   CLEAR     56  55  94 W6        30.00S
BOWLING GREEN  CLEAR     56  50  80 W5        29.99S
GLASGOW        NOT AVBL
$$

KYZ024-025-028>034-038-045-046-053-210600-
NORTH CENTRAL KENTUCKY

CITY           SKY/WX    TMP DP  RH WIND       PRES   REMARKS
LOUISVILLE/SDF PTCLDY    55  50  83 W9        29.94S
LOUISVILLE/LOU FOG       52  51  97 CALM      29.95S VSB 1/4
FORT KNOX      CLEAR     52  49  88 W6        29.95S
$$

KYZ035>037-039>044-047>052-055>060-089>105-210600-
NORTHEAST KENTUCKY

CITY           SKY/WX    TMP DP  RH WIND       PRES   REMARKS
LEXINGTON      CLEAR     55  49  80 SW6       29.94S
COVINGTON      NOT AVBL
FRANKFORT      CLEAR     54  50  86 W5        29.92F
$$

KYZ054-064>069-076>088-106>120-210600-
SOUTHEAST KENTUCKY

CITY           SKY/WX    TMP DP  RH WIND       PRES   REMARKS
JACKSON        CLOUDY    53  47  79 CALM      29.96F
LONDON         PTCLDY    52  46  80 SW5       29.98F
SOMERSET       LGT RAIN  48  48 100 CALM      29.98F
MIDDLESBORO    CLEAR     45  45  99 CALM      30.00S
MONTICELLO     PTCLDY    54  49  83 CALM      30.00F
$$



USA.gov is the U.S. government's official web portal to all federal, state and local government web resources and services.